THOR ABLESTAR DEB, 48816

Orbit data source: Space-Track

THOR ABLESTAR DEB, 48816 is space debris in LEO originally from a launch on Thu, 29 Jun 1961 UTC launched from the Air Force Eastern Test Range (AFETR). Debris objects in space refer to the collection of defunct objects orbiting the Earth. Examples of debris include non-operational satellites, rocket bodies, and fragments generated from explosions, collisions, or faulty payload assembly.

Loading next visibility...
Identifier
48816, 1961-015MU
Orbit
LEO
Country
Flag of USUS
Related business
Manufacturer
Unknown
Mission
Spacecraft
Bus & Motor
Unknown
Mass
Unknown
Launch date (UTC)
1961-06-29 (65 years ago)
Launch vehicle
Unknown
Launch site
Air Force Eastern Test Range (AFETR)
Object type
Payload
Rocket body
Debris
Shape & HBR
Unknown shape, 0.1 m
Radar Cross Section
Small (<0.1 m²)

Expand to show TLE details & history
Last TLE update: 3 days ago

TLE from 3 days ago
0 THOR ABLESTAR DEB
1 48816U 61015MU  26092.24924812  .00001038  00000-0  61562-3 0  9996
2 48816  66.8058  92.9634 0108810 249.4230 109.5158 14.08571295635147
Epoch: 2026-04-02T05:58Z
TLE epoch observation values (Epoch: 2026-04-02T05:58:55.037Z)
Latitude
-0.00005°
Longitude
172.63362°
Altitude
893.445 km
Speed
7.392 km/s
True Right ascension
06h 11m 51s
True Declination
0° 00' 00"
Sunlit
Object was in daylight at epoch
Visualization orbit readout
Latitude
Unknown
Longitude
Unknown
Altitude
Unknown
Speed
Unknown
Apparent Right ascension
Unknown
Apparent Declination
Unknown
Sunlit
N/A
Visualization observer readout
Local Sidereal Time
23:14:14
Azimuth
Unknown
Elevation
Unknown
Doppler factor
Unknown
Orbital elements
Apogee altitude
941.431 km
Perigee altitude
783.857 km
Semi-major axis
7,240.781 km
Eccentricity
0.01088
Inclination
66.8058°
RAAN
92.9634°
Arg. of periapsis
249.423°
True anomaly
110.68564°
Mean anomaly
109.5158°
Eccentric anomaly
110.10126°
Mean motion
3.52261 °/min
Orbital period
102.2 mins
BSTAR
0.00061562
Loading maneuver chart data...
Computing Atmospheric mass density...

Documentation

Showing up to 5 results
|